TimeEST,TemperatureF,Dew PointF,Humidity,Sea Level PressureIn,VisibilityMPH,Wind Direction,Wind SpeedMPH,Gust SpeedMPH,PrecipitationIn,Events,Conditions,WindDirDegrees,DateUTC
12:53 AM,35.1,33.1,92,29.94,5.0,Calm,Calm,-,0.03,Rain,Light Rain,0,2012-12-29 05:53:00
1:53 AM,34.0,33.1,96,29.90,4.0,Calm,Calm,-,0.05,Rain,Light Rain,0,2012-12-29 06:53:00
2:49 AM,33.8,32.0,93,29.90,2.5,Calm,Calm,-,0.04,Rain,Light Rain,0,2012-12-29 07:49:00
2:53 AM,34.0,32.0,92,29.88,2.5,Calm,Calm,-,0.04,Rain,Light Rain,0,2012-12-29 07:53:00
3:19 AM,33.8,33.8,100,29.88,1.0,Calm,Calm,-,0.02,Rain,Light Rain,0,2012-12-29 08:19:00
3:28 AM,33.8,33.8,100,29.86,0.8,Calm,Calm,-,0.03,Rain,Rain,0,2012-12-29 08:28:00
3:36 AM,33.8,33.8,100,29.85,1.5,Calm,Calm,-,0.04,Rain,Rain,0,2012-12-29 08:36:00
3:53 AM,34.0,32.0,92,29.79,1.0,NNE,6.9,-,0.05,Rain,Light Rain,20,2012-12-29 08:53:00
4:03 AM,33.8,32.0,93,29.80,3.0,NE,3.5,-,0.00,Rain,Light Rain,40,2012-12-29 09:03:00
4:10 AM,33.8,32.0,93,29.79,2.5,ENE,4.6,-,0.00,Rain,Light Rain,60,2012-12-29 09:10:00
4:30 AM,33.8,33.8,100,29.81,2.0,Calm,Calm,-,0.00,,Overcast,0,2012-12-29 09:30:00
4:44 AM,33.8,33.8,100,29.80,1.0,Calm,Calm,-,0.00,,Overcast,0,2012-12-29 09:44:00
4:53 AM,34.0,33.1,96,29.78,1.0,Calm,Calm,-,0.00,,Overcast,0,2012-12-29 09:53:00
5:05 AM,33.8,32.0,93,29.78,0.8,Calm,Calm,-,N/A,,Mist,0,2012-12-29 10:05:00
5:27 AM,33.8,32.0,93,29.77,1.8,Calm,Calm,-,N/A,,Overcast,0,2012-12-29 10:27:00
5:53 AM,33.1,32.0,96,29.76,1.8,NNW,3.5,-,N/A,,Overcast,330,2012-12-29 10:53:00
5:56 AM,33.8,32.0,93,29.77,2.0,NW,4.6,-,N/A,,Overcast,320,2012-12-29 10:56:00
6:07 AM,33.8,32.0,93,29.77,2.5,Calm,Calm,-,0.00,Rain,Light Rain,0,2012-12-29 11:07:00
6:37 AM,33.8,32.0,93,29.77,2.0,NW,4.6,-,0.00,,Overcast,310,2012-12-29 11:37:00
6:41 AM,33.8,32.0,93,29.77,1.8,NW,5.8,-,0.00,,Overcast,320,2012-12-29 11:41:00
6:49 AM,33.8,32.0,93,29.77,1.8,NW,3.5,-,0.00,Rain,Light Rain,320,2012-12-29 11:49:00
6:53 AM,34.0,33.1,96,29.76,1.8,NW,3.5,-,0.00,Rain,Light Rain,320,2012-12-29 11:53:00
6:59 AM,33.8,33.8,100,29.77,2.0,NW,3.5,-,0.00,,Overcast,310,2012-12-29 11:59:00
7:34 AM,33.8,33.8,100,29.76,2.0,Calm,Calm,-,0.00,,Overcast,0,2012-12-29 12:34:00
7:42 AM,33.8,33.8,100,29.76,1.8,Calm,Calm,-,0.00,,Overcast,0,2012-12-29 12:42:00
7:53 AM,34.0,32.0,92,29.75,2.0,Calm,Calm,-,0.00,,Overcast,0,2012-12-29 12:53:00
8:00 AM,33.8,33.8,100,29.76,1.0,Calm,Calm,-,N/A,,Overcast,0,2012-12-29 13:00:00
8:08 AM,35.6,33.8,93,29.76,1.2,Calm,Calm,-,N/A,,Overcast,0,2012-12-29 13:08:00
8:21 AM,33.8,33.8,100,29.76,2.0,Calm,Calm,-,N/A,,Overcast,0,2012-12-29 13:21:00
8:36 AM,33.8,32.0,93,29.76,1.8,WNW,4.6,-,N/A,,Overcast,290,2012-12-29 13:36:00
8:53 AM,34.0,33.1,96,29.75,1.0,Calm,Calm,-,N/A,,Overcast,0,2012-12-29 13:53:00
9:16 AM,35.6,35.6,100,29.76,2.5,Calm,Calm,-,N/A,,Mostly Cloudy,0,2012-12-29 14:16:00
9:19 AM,35.6,35.6,100,29.76,3.0,SSW,4.6,-,N/A,,Scattered Clouds,200,2012-12-29 14:19:00
9:41 AM,35.6,33.8,93,29.76,2.5,South,4.6,-,N/A,,Partly Cloudy,180,2012-12-29 14:41:00
9:50 AM,37.4,35.6,93,29.76,3.0,Calm,Calm,-,N/A,,Scattered Clouds,0,2012-12-29 14:50:00
9:53 AM,37.9,36.0,93,29.75,4.0,West,3.5,-,N/A,,Scattered Clouds,260,2012-12-29 14:53:00
10:09 AM,39.2,37.4,93,29.77,5.0,WSW,6.9,-,N/A,,Mostly Cloudy,250,2012-12-29 15:09:00
10:53 AM,41.0,37.9,89,29.75,8.0,SW,6.9,-,N/A,,Mostly Cloudy,230,2012-12-29 15:53:00
11:10 AM,42.8,37.4,81,29.75,8.0,SSW,6.9,-,N/A,,Scattered Clouds,210,2012-12-29 16:10:00
11:53 AM,46.0,37.9,73,29.72,10.0,WSW,5.8,-,N/A,,Partly Cloudy,240,2012-12-29 16:53:00
12:53 PM,50.0,35.1,57,29.70,10.0,West,11.5,21.9,N/A,,Partly Cloudy,270,2012-12-29 17:53:00
1:53 PM,48.9,30.9,50,29.70,10.0,NW,10.4,18.4,N/A,,Overcast,320,2012-12-29 18:53:00
2:53 PM,50.0,28.9,44,29.71,10.0,NW,13.8,25.3,N/A,,Mostly Cloudy,320,2012-12-29 19:53:00
3:53 PM,48.0,28.0,46,29.76,10.0,West,11.5,19.6,N/A,,Mostly Cloudy,280,2012-12-29 20:53:00
4:53 PM,43.0,26.1,51,29.81,10.0,NW,9.2,-,N/A,,Scattered Clouds,310,2012-12-29 21:53:00
5:53 PM,39.9,26.1,58,29.83,10.0,Variable,3.5,-,N/A,,Mostly Cloudy,0,2012-12-29 22:53:00
6:53 PM,37.0,25.0,62,29.86,10.0,West,3.5,-,N/A,,Partly Cloudy,280,2012-12-29 23:53:00
7:53 PM,39.0,24.1,55,29.89,10.0,NW,10.4,17.3,N/A,,Mostly Cloudy,310,2012-12-30 00:53:00
8:53 PM,37.9,23.0,55,29.93,10.0,NW,9.2,17.3,N/A,,Mostly Cloudy,320,2012-12-30 01:53:00
9:53 PM,37.0,21.0,52,29.95,10.0,NW,16.1,25.3,N/A,,Scattered Clouds,310,2012-12-30 02:53:00
10:53 PM,36.0,21.0,55,29.98,10.0,Variable,3.5,-,N/A,,Overcast,0,2012-12-30 03:53:00
11:53 PM,35.1,19.0,52,30.00,10.0,WNW,11.5,21.9,N/A,,Partly Cloudy,300,2012-12-30 04:53:00